Weather History for Rush City, MN

Change the Weather History Date:

Monday, November 11, 2013

  Actual Average (KCBG) Record (KCBG)
Temperature  
Mean Temperature 23 °F -  
Max Temperature 34 °F 38 °F 64 °F (2005)
Min Temperature 12 °F 21 °F 0 °F (1986)
Degree Days  
Heating Degree Days 42    
Moisture  
Dew Point 10 °F    
Average Humidity 62    
Maximum Humidity 84    
Minimum Humidity 45    
Precipitation  
Precipitation 0.00 in - - ()
Sea Level Pressure  
Sea Level Pressure 30.44 in    
Wind  
Wind Speed 9 mph (NNW)    
Max Wind Speed 17 mph    
Max Gust Speed 25 mph    
Visibility 10 miles    
Events      
Averages and records for this station are not official NWS values.
T = Trace of Precipitation, MM = Missing Value Source: NWS Daily Summary

Daily Weather History Graph

Daily Weather History Graph

Search for Another Location

Airport:

Trip Planner

Search our weather history database for the weather conditions in past years. The results will help you decide how hot, cold, wet, or windy it might be!

Date:

Astronomy

Nov. 11, 2013 Rise Set
Actual Time 7:06 AM CST 4:44 PM CST
Civil Twilight 6:34 AM CST 5:16 PM CST
Nautical Twilight 5:58 AM CST 5:52 PM CST
Astronomical Twilight 5:23 AM CST 6:27 PM CST
Moon 1:42 PM CST (11/11) 12:33 AM CST (11/11)
Length of Visible Light 10h 42m
Length of Day
9h 38m
Waxing Gibbous, 66% of the Moon is Illuminated
Nov 11
Waxing Gibbous
Nov 17
Full
Nov 25
Last Quarter
Dec 2
New
Dec 9
First Quarter

Hourly Weather History & Observations

Time (CST) Temp. Windchill Dew Point Humidity Pressure Visibility Wind Dir Wind Speed Gust Speed Precip Events Conditions
12:15 AM 34.2 °F 31.2 °F 29.7 °F 84% 30.11 in 10.0 mi WNW 3.5 mph - N/A   Overcast
12:35 AM 34.2 °F 31.2 °F 29.3 °F 82% 30.11 in 10.0 mi NW 3.5 mph - N/A   Overcast
12:55 AM 32.2 °F 23.2 °F 25.2 °F 75% 30.14 in 10.0 mi North 11.5 mph 21.9 mph N/A   Overcast
1:15 AM 31.6 °F 22.6 °F 24.8 °F 76% 30.14 in 10.0 mi North 11.5 mph 19.6 mph N/A   Overcast
1:35 AM 30.9 °F 21.7 °F 22.6 °F 71% 30.16 in 10.0 mi NNW 11.5 mph 17.3 mph N/A   Overcast
1:55 AM 30.2 °F 20.8 °F 20.3 °F 67% 30.16 in 10.0 mi NNW 11.5 mph 19.6 mph N/A   Overcast
2:15 AM 29.3 °F 19.1 °F 21.6 °F 73% 30.18 in 10.0 mi NNW 12.7 mph 20.7 mph N/A   Overcast
2:35 AM 28.6 °F 17.2 °F 20.8 °F 73% 30.19 in 10.0 mi North 15.0 mph - N/A   Overcast
2:55 AM 26.6 °F 14.7 °F 14.9 °F 61% 30.21 in 10.0 mi North 15.0 mph 24.2 mph N/A   Overcast
3:15 AM 25.9 °F 12.9 °F 9.5 °F 50% 30.22 in 10.0 mi North 17.3 mph 25.3 mph N/A   Overcast
3:35 AM 24.8 °F 14.0 °F 8.4 °F 50% 30.22 in 10.0 mi North 11.5 mph 19.6 mph N/A   Mostly Cloudy
3:55 AM 24.3 °F 12.2 °F 9.1 °F 53% 30.24 in 10.0 mi North 13.8 mph 21.9 mph N/A   Mostly Cloudy
4:15 AM 23.0 °F 11.7 °F 10.6 °F 59% 30.26 in 10.0 mi NNW 11.5 mph 21.9 mph N/A   Mostly Cloudy
4:35 AM 22.3 °F 10.8 °F 10.4 °F 60% 30.26 in 10.0 mi NNW 11.5 mph 19.6 mph N/A   Overcast
4:55 AM 21.7 °F 10.8 °F 11.3 °F 64% 30.27 in 10.0 mi North 10.4 mph 17.3 mph N/A   Mostly Cloudy
5:15 AM 21.0 °F 9.9 °F 10.2 °F 63% 30.29 in 10.0 mi North 10.4 mph 18.4 mph N/A   Mostly Cloudy
5:35 AM 20.3 °F 7.7 °F 10.0 °F 65% 30.30 in 10.0 mi North 12.7 mph 19.6 mph N/A   Scattered Clouds
5:55 AM 19.9 °F 8.6 °F 10.4 °F 67% 30.31 in 10.0 mi North 10.4 mph 20.7 mph N/A   Clear
6:15 AM 19.4 °F 6.0 °F 9.9 °F 66% 30.32 in 10.0 mi North 13.8 mph 21.9 mph N/A   Clear
6:34 AM 19.2 °F 6.4 °F 9.0 °F 64% 30.33 in 10.0 mi North 12.7 mph 21.9 mph N/A   Clear
6:55 AM 19.2 °F 7.0 °F 8.8 °F 64% 30.35 in 10.0 mi North 11.5 mph 19.6 mph N/A   Clear
7:14 AM 19.0 °F 5.6 °F 8.6 °F 64% 30.36 in 10.0 mi North 13.8 mph 20.7 mph N/A   Clear
7:35 AM 19.2 °F 7.7 °F 9.0 °F 64% 30.37 in 10.0 mi North 10.4 mph 17.3 mph N/A   Scattered Clouds
7:55 AM 19.4 °F 8.6 °F 9.1 °F 64% 30.38 in 10.0 mi North 9.2 mph - N/A   Mostly Cloudy
8:14 AM 19.8 °F 9.1 °F 10.2 °F 67% 30.39 in 10.0 mi North 9.2 mph - N/A   Overcast
8:35 AM 19.4 °F 7.9 °F 9.5 °F 65% 30.41 in 10.0 mi North 10.4 mph 17.3 mph N/A   Overcast
8:55 AM 19.8 °F 7.7 °F 8.8 °F 62% 30.41 in 10.0 mi North 11.5 mph 19.6 mph N/A   Overcast
9:14 AM 20.3 °F 7.7 °F 9.0 °F 62% 30.42 in 10.0 mi North 12.7 mph 17.3 mph N/A   Overcast
9:35 AM 19.9 °F 7.3 °F 8.8 °F 62% 30.43 in 10.0 mi North 12.7 mph 19.6 mph N/A   Overcast
9:55 AM 20.3 °F 9.0 °F 8.8 °F 61% 30.43 in 10.0 mi North 10.4 mph 19.6 mph N/A   Mostly Cloudy
10:14 AM 22.1 °F 12.0 °F 8.8 °F 57% 30.44 in 10.0 mi North 9.2 mph 19.6 mph N/A   Scattered Clouds
10:35 AM 22.5 °F 11.7 °F 8.1 °F 54% 30.44 in 10.0 mi North 10.4 mph 20.7 mph N/A   Scattered Clouds
10:54 AM 23.4 °F 12.2 °F 9.0 °F 54% 30.45 in 10.0 mi NNW 11.5 mph 19.6 mph N/A   Scattered Clouds
11:15 AM 23.4 °F 11.6 °F 9.1 °F 55% 30.45 in 10.0 mi North 12.7 mph 17.3 mph N/A   Scattered Clouds
11:35 AM 23.4 °F 16.2 °F 8.6 °F 53% 30.46 in 10.0 mi NW 5.8 mph - N/A   Scattered Clouds
11:54 AM 23.9 °F 12.3 °F 9.0 °F 53% 30.46 in 10.0 mi North 12.7 mph 17.3 mph N/A   Scattered Clouds
12:15 PM 24.3 °F 14.6 °F 8.6 °F 51% 30.45 in 10.0 mi NNW 9.2 mph 17.3 mph N/A   Scattered Clouds
12:35 PM 24.6 °F 14.4 °F 8.4 °F 50% 30.46 in 10.0 mi NW 10.4 mph - N/A   Scattered Clouds
12:54 PM 25.3 °F 14.7 °F 8.2 °F 48% 30.46 in 10.0 mi North 11.5 mph 17.3 mph N/A   Scattered Clouds
1:15 PM 24.4 °F 15.6 °F 7.9 °F 49% 30.47 in 10.0 mi NNW 8.1 mph 18.4 mph N/A   Clear
1:35 PM 24.8 °F 12.9 °F 7.5 °F 48% 30.47 in 10.0 mi North 13.8 mph 19.6 mph N/A   Clear
1:55 PM 25.2 °F 15.7 °F 7.2 °F 46% 30.47 in 10.0 mi NNW 9.2 mph 17.3 mph N/A   Clear
2:15 PM 24.8 °F 14.0 °F 7.0 °F 47% 30.48 in 10.0 mi NNW 11.5 mph 18.4 mph N/A   Clear
2:35 PM 25.3 °F 16.0 °F 6.4 °F 45% 30.49 in 10.0 mi North 9.2 mph 20.7 mph N/A   Clear
2:55 PM 24.8 °F 14.6 °F 7.7 °F 48% 30.49 in 10.0 mi NNW 10.4 mph 17.3 mph N/A   Clear
3:15 PM 24.8 °F 16.1 °F 6.8 °F 46% 30.50 in 10.0 mi NW 8.1 mph - N/A   Clear
3:35 PM 24.1 °F 14.4 °F 5.5 °F 45% 30.51 in 10.0 mi NNW 9.2 mph - N/A   Clear
3:55 PM 23.9 °F 14.2 °F 7.7 °F 50% 30.52 in 10.0 mi NW 9.2 mph - N/A   Scattered Clouds
4:15 PM 22.8 °F 11.5 °F 6.4 °F 50% 30.53 in 10.0 mi NW 11.5 mph 17.3 mph N/A   Clear
4:35 PM 21.9 °F 14.5 °F 7.5 °F 54% 30.54 in 10.0 mi NW 5.8 mph - N/A   Clear
4:55 PM 21.0 °F 11.4 °F 7.5 °F 56% 30.55 in 10.0 mi NW 8.1 mph - N/A   Clear
5:15 PM 19.9 °F 10.1 °F 7.7 °F 59% 30.56 in 10.0 mi NW 8.1 mph 16.1 mph N/A   Clear
5:35 PM 19.4 °F 9.5 °F 8.1 °F 61% 30.57 in 10.0 mi NW 8.1 mph - N/A   Clear
5:55 PM 18.9 °F 8.8 °F 7.7 °F 62% 30.58 in 10.0 mi NW 8.1 mph - N/A   Clear
6:15 PM 18.5 °F 10.4 °F 8.1 °F 64% 30.58 in 10.0 mi NW 5.8 mph - N/A   Clear
6:35 PM 18.3 °F 9.1 °F 7.7 °F 63% 30.59 in 10.0 mi NW 6.9 mph - N/A   Clear
6:55 PM 18.0 °F 9.8 °F 7.7 °F 64% 30.60 in 10.0 mi NW 5.8 mph - N/A   Clear
7:15 PM 17.4 °F 6.2 °F 7.5 °F 65% 30.61 in 10.0 mi NNW 9.2 mph - N/A   Clear
7:35 PM 17.2 °F 6.0 °F 7.5 °F 66% 30.63 in 10.0 mi NNW 9.2 mph - N/A   Clear
7:55 PM 17.1 °F 5.8 °F 7.5 °F 66% 30.63 in 10.0 mi NW 9.2 mph - N/A   Clear
8:15 PM 16.5 °F 8.1 °F 7.5 °F 68% 30.64 in 10.0 mi NNW 5.8 mph - N/A   Clear
8:35 PM 16.2 °F 9.0 °F 7.5 °F 69% 30.65 in 10.0 mi NW 4.6 mph - N/A   Clear
8:55 PM 15.8 °F 6.1 °F 7.7 °F 70% 30.66 in 10.0 mi NNW 6.9 mph - N/A   Clear
9:15 PM 15.4 °F 9.8 °F 7.7 °F 71% 30.66 in 10.0 mi NNW 3.5 mph - N/A   Clear
9:35 PM 15.3 °F 9.6 °F 7.7 °F 72% 30.66 in 10.0 mi NNW 3.5 mph - N/A   Clear
9:55 PM 15.3 °F 7.9 °F 7.7 °F 72% 30.68 in 10.0 mi North 4.6 mph - N/A   Clear
10:14 PM 14.5 °F 8.8 °F 7.5 °F 74% 30.69 in 10.0 mi NNW 3.5 mph - N/A   Clear
10:35 PM 14.4 °F - 7.2 °F 73% 30.69 in 10.0 mi Calm Calm - N/A   Clear
10:55 PM 13.3 °F - 6.8 °F 75% 30.69 in 10.0 mi Calm Calm - N/A   Clear
11:15 PM 12.7 °F 6.7 °F 7.3 °F 79% 30.70 in 10.0 mi NW 3.5 mph - N/A   Clear
11:35 PM 12.7 °F 6.7 °F 7.0 °F 78% 30.70 in 10.0 mi NW 3.5 mph - N/A   Clear
11:55 PM 12.9 °F - 7.0 °F 77% 30.70 in 10.0 mi Calm Calm - N/A   Clear